Weather History for HKMO - October, 2013

Change the Weather History Date:

Sunday, October 27, 2013

  Actual Average Record
Temperature  
Mean Temperature 78 °F -  
Max Temperature 84 °F 89 °F 91 °F (2008)
Min Temperature 73 °F 72 °F 71 °F (2001)
Cooling Degree Days 14    
Growing Degree Days 28 (Base 50)    
Moisture  
Dew Point 72 °F    
Average Humidity 80    
Maximum Humidity 94    
Minimum Humidity 66    
Precipitation  
Precipitation 0.00 in 0.14 in - ()
Sea Level Pressure  
Sea Level Pressure 29.94 in    
Wind  
Wind Speed 7 mph ()    
Max Wind Speed 16 mph    
Max Gust Speed -    
Visibility 6.2 miles    
Events      
Averages and records for this station are not official NWS values.
T = Trace of Precipitation, MM = Missing Value Source: Averaged Metar Reports

Daily Weather History Graph

Daily Weather History Graph

Search for Another Location

Airport or City:

Trip Planner

Search our weather history database for the weather conditions in past years. The results will help you decide how hot, cold, wet, or windy it might be!

Date:

Astronomy

Oct. 27, 2013 Rise Set
Actual Time 5:58 AM EAT 6:12 PM EAT
Civil Twilight 5:37 AM EAT 6:33 PM EAT
Nautical Twilight 5:12 AM EAT 6:58 PM EAT
Astronomical Twilight 4:47 AM EAT 7:23 PM EAT
Moon 12:18 AM EAT (10/27) 12:32 PM EAT (10/27)
Length of Visible Light 12h 56m
Length of Day
12h 14m
Waning Gibbous, 46% of the Moon is Illuminated
Oct 27
Waning Gibbous
Nov 3
New
Nov 10
First Quarter
Nov 17
Full
Nov 25
Last Quarter

Hourly Weather History & Observations

Time (EAT) Temp. Heat Index Dew Point Humidity Pressure Visibility Wind Dir Wind Speed Gust Speed Precip Events Conditions
12:00 AM 78.8 °F - 73.4 °F 83% 29.92 in 6.2 mi South 6.9 mph - N/A   Scattered Clouds
3:00 AM 75.2 °F - 73.4 °F 94% 29.89 in 6.2 mi Calm Calm - N/A   Scattered Clouds
5:00 AM 73.4 °F - 71.6 °F 94% 29.92 in 6.2 mi Calm Calm - N/A   Partly Cloudy
6:00 AM 73.4 °F - 71.6 °F 94% 29.92 in 6.2 mi Calm Calm - N/A   Partly Cloudy
7:00 AM 73.4 °F - 71.6 °F 94% 29.95 in 6.2 mi SW 9.2 mph - N/A   Partly Cloudy
8:00 AM 77.0 °F - 73.4 °F 89% 29.98 in 6.2 mi SSW 11.5 mph - N/A   Partly Cloudy
9:00 AM 78.8 °F - 73.4 °F 83% 30.01 in 6.2 mi South 6.9 mph - N/A   Mostly Cloudy
10:00 AM 82.4 °F 87.2 °F 71.6 °F 70% 30.01 in 6.2 mi South 11.5 mph - N/A   Scattered Clouds
11:00 AM 77.0 °F - 73.4 °F 89% 30.01 in 6.2 mi SSE 10.4 mph - N/A   Mostly Cloudy
12:00 PM 80.6 °F 84.6 °F 71.6 °F 74% 29.98 in 6.2 mi SSE 11.5 mph - N/A   Scattered Clouds
1:00 PM 82.4 °F 87.2 °F 71.6 °F 70% 29.95 in 6.2 mi South 10.4 mph - N/A   Scattered Clouds
2:00 PM 84.2 °F 89.6 °F 71.6 °F 66% 29.92 in 6.2 mi SE 16.1 mph - N/A   Partly Cloudy
3:00 PM 84.2 °F 89.6 °F 71.6 °F 66% 29.92 in 6.2 mi SSE 11.5 mph - N/A   Scattered Clouds
4:00 PM 82.4 °F 86.3 °F 69.8 °F 66% 29.89 in 6.2 mi ESE 12.7 mph - N/A   Scattered Clouds
5:00 PM 82.4 °F 87.2 °F 71.6 °F 70% 29.89 in 6.2 mi SE 16.1 mph - N/A   Scattered Clouds
6:00 PM 80.6 °F 83.9 °F 69.8 °F 70% 29.89 in 6.2 mi East 12.7 mph - N/A   Partly Cloudy
7:00 PM 78.8 °F - 71.6 °F 78% 29.92 in 6.2 mi South 6.9 mph - N/A   Scattered Clouds
8:00 PM 78.8 °F - 71.6 °F 78% 29.95 in 6.2 mi South 5.8 mph - N/A   Scattered Clouds
9:00 PM 78.8 °F - 71.6 °F 78% 29.95 in 6.2 mi SSE 11.5 mph - N/A   Partly Cloudy
10:00 PM 77.0 °F - 71.6 °F 83% 29.98 in 6.2 mi SSE 6.9 mph - N/A   Partly Cloudy
10:30 PM 77.0 °F - 71.6 °F 83% 29.98 in 6.2 mi South 5.8 mph - N/A   Partly Cloudy